146  
ASUS43 KFGF 211631  
RWRFGF  
PRAIRIE TO PINES WEATHER ROUNDUP  
NATIONAL WEATHER SERVICE EASTERN NORTH DAKOTA/GRAND FORKS ND  
1100 AM CDT SAT MAY 21 2022  
 
**SATELLITE DATA USED TO AUGMENT SKY COVER AT AUTOMATED STATIONS**  
***** WEATHER ACROSS EASTERN NORTH DAKOTA *****  
 
CITY SKY/WX TMP DP RH WIND PRES REMARKS
 
GRAND FORKS CLOUDY 43 32 65 N12 30.13R  
GRAND FRKS AFB CLOUDY 44 33 67 NW13 30.13S  
GRAND FRKS NWS N/A 43 34 69 N6 30.09R  
DEVILS LAKE CLOUDY 39 34 81 W14 30.14R  
FARGO CLOUDY 42 26 53 NW12 30.14R  
WAHPETON ARPT CLOUDY 45 30 57 NW15 30.14R  

 
 
***** WEATHER ACROSS CENTRAL AND WESTERN NORTH DAKOTA *****  
 
CITY SKY/WX TMP DP RH WIND PRES REMARKS
 
BISMARCK CLOUDY 43 32 65 NW10 30.18R  
MINOT CLOUDY 43 31 62 NW12 30.17S  
JAMESTOWN LGT RAIN 41 33 73 NW9 30.15R  
MINOT AFB CLOUDY 41 21 45 N12 30.15R  
GARRISON N/A 41 31 67 NW13 30.17R  
WILLISTON NOT AVBL  
DICKINSON CLOUDY 40 30 67 NW12 30.16R  
HETTINGER CLOUDY 41 30 65 NW16 30.19R  

 
 
***** OTHER AIRPORT OBSERVATIONS IN OUR AREA *****  
 
CITY SKY/WX TMP DP RH WIND PRES REMARKS
 
WALHALLA LGT RAIN 41 39 93 N15 30.12S  
GRAFTON AIRPOR FAIR 43 32 65 NW10G16 30.14R  
VALLEY CITY AR CLOUDY 45 30 57 N10 30.15S  
CANDO N/A 43 N/A N/A N13 30.15S  
CAVALIER APRT CLOUDY 43 37 81 NW9 30.12S  
GWINNER CLOUDY 45 32 61 N10 30.15S  
SHEYENNE NWR N/A 45 30 55 N8 29.95S  
ROLLA CLOUDY 41 41 100 N13G21 30.13S  
***** THE ABOVE OBSERVATIONS ARE NON NWS ARE NOT QUALITY  
CONTROLLED AND MAY MIS-REPORT RAIN FOR SNOW...  

 
 
***** WEATHER ACROSS NORTHERN MINNESOTA *****  
 
CITY SKY/WX TMP DP RH WIND PRES REMARKS
 
FLAG ISLAND CLOUDY 39 28 65 W8 30.06S  
WARROAD CLOUDY 39 30 70 NW7 30.08S  
ROSEAU N/A 43 28 56 NW8 30.09R  
HALLOCK CLOUDY 41 34 75 N6 30.12R  
THF RVR FALLS CLOUDY 37 32 81 NW13G18 30.13R  
BAUDETTE CLOUDY 44 32 62 NW12G21 30.06S  
WASKISH CLOUDY 43 34 70 NW5 30.07R  
CROOKSTON PTSUNNY 39 N/A N/A NW13 30.14R  
STEPHEN NDAWN N/A 41 34 75 MISG N/A  
GREENBUSH NDAW N/A 41 28 60 MISG N/A  

 
***** WEATHER ACROSS CENTRAL AND WEST MINNESOTA *****  
 
CITY SKY/WX TMP DP RH WIND PRES REMARKS
 
FOSSTON N/A 39 28 65 NW9G16 30.11R  
BEMIDJI CLOUDY 41 29 62 W14 30.09R  
PARK RAPIDS CLOUDY 40 26 57 NW13 30.09R  
ELBOW LAKE CLOUDY 43 30 59 NW12 30.15R  
WADENA CLOUDY 39 27 60 W8 30.12R  
DETROIT LAKES CLOUDY 41 27 56 VRB7G14 30.12R  
MOORHEAD FAIR 43 28 56 NW9 30.16R  
FERGUS FALLS PTSUNNY 45 30 57 NW15 30.11R  
MORRIS MN NOT AVBL  
STAPLES N/A 45 28 53 W12G20 30.12R  

 
***** WEATHER ELSEWHERE ACROSS MINNESOTA *****  
 
CITY SKY/WX TMP DP RH WIND PRES REMARKS
 
DULUTH PTSUNNY 46 35 65 W13 30.04R  
INTRNTL FALLS RAIN 40 33 76 MISG 30.04R  
ELY PTSUNNY 43 30 61 NW6 30.04R  
CLOQUET N/A 45 30 57 SW10 30.04R  
WHEATON CLOUDY 45 28 53 NW10G17 30.17R  
BRAINERD CLOUDY 44 26 49 W7 30.10R  
HIBBING CLOUDY 41 34 76 N7 30.04R  
ALEXANDRIA CLOUDY 44 27 51 W8 30.13R  
SAINT CLOUD FAIR 49 31 49 NW15G22 30.10R  
MINNEAPOLIS PTSUNNY 52 33 48 N9 30.09R  

 
 
***** WEATHER ACROSS SOUTH DAKOTA *****  
 
CITY SKY/WX TMP DP RH WIND PRES REMARKS
 
SIOUX FALLS PTSUNNY 51 31 46 NW7 30.15R  
BROOKINGS CLOUDY 47 32 56 NW9G17 30.14R  
WATERTOWN CLOUDY 44 36 73 SW10 30.13R  
HURON CLOUDY 45 36 70 NW15 30.17S  
SISSETON N/A 48 34 58 NW8 30.13S  
ABERDEEN CLOUDY 48 38 68 N8 30.16R  
MITCHELL CLOUDY 45 34 65 N12 30.19R  
PIERRE PTSUNNY 47 31 53 NW13G21 30.18S  
MOBRIDGE PTSUNNY 48 30 49 N14 30.15S  
RAPID CITY CLOUDY 44 32 62 N9 30.21R  

 
 
***** SOME WEATHER IN NEARBY STATES *****  
 
CITY SKY/WX TMP DP RH WIND PRES REMARKS
 
GLASGOW MT PTSUNNY 44 31 60 N14 30.25S  
GREAT FALLS MT FAIR 41 26 55 CALM 30.29S  
CHEYENNE WY FAIR 39 18 42 NW7 30.21S  
SCOTTSBLUFF NE CLOUDY 44 27 51 NW12 30.24S  
OMAHA NE CLOUDY 50 38 63 N13 30.18S  
DES MOINES IA CLOUDY 51 36 56 N10 30.11F  
DAVENPORT IA CLOUDY 54 46 74 NW12 30.04F  
CHICAGO IL TSTM 59 53 80 NW9 29.99F  
EAU CLAIRE WI FAIR 50 35 56 NW9 30.05R  
LA CROSSE WI FAIR 55 36 48 NW8 30.06R  

 
 
***** SOME NATIONAL WEATHER *****  
 
CITY SKY/WX TMP DP RH WIND PRES REMARKS
 
LA GUARDIA NY FAIR 81 66 60 NW5 30.01F  
RALEIGH NC PTSUNNY 88 74 63 SW5 30.15S HX 96  
ATLANTA GA FAIR 80 67 64 S8 30.20R  
NEW ORLEANS LA PTSUNNY 86 76 71 SE20 30.03R HX 96  
OKLAHOMA CITY CLOUDY 58 47 66 N21G28 30.01R  
ALBUQUERQUE NM FAIR 64 30 27 E21 30.05R  
SALT LAKE CITY FAIR 53 19 26 S7 30.11S  
LOS ANGELES CA CLOUDY 62 56 80 SW5 29.94R  
BOISE ID CLOUDY 56 25 30 VRB5 30.12R  
SEATTLE WA FAIR 53 43 68 VRB5 30.23S  

 
 
*** WEATHER ACROSS MANITOBA...SASKATCHEWAN AND ONTARIO ***  
***ONTARIO***  
 
CITY SKY/WX TMP DP RH WIND PRES REMARKS
 
GERALDTON NOT AVBL  
THUNDER BAY CLOUDY 46 30 53 W6 30.01F  
SIOUX LOOKOUT PTSUNNY 39 23 52 NW6 30.01R  
TORONTO MOSUNNY 84 66 54 SW18G24 29.86R  
BIG TROUT LK CLOUDY 37 27 65 NW13G20 29.89R  
PICKLE LAKE CLOUDY N/A N/A N/A W13G18 29.93S  
DRYDEN PTSUNNY 39 28 65 W8 30.02S  
KENORA CLOUDY 37 30 75 W9 30.04R  

 
*** MANITOBA***  
 
CITY SKY/WX TMP DP RH WIND PRES REMARKS
 
BRANDON PTSUNNY 45 32 61 NW13 30.12F  
DAUPHIN MOSUNNY 48 30 49 NW9 30.11S  
ISLAND LAKE PTSUNNY 39 27 60 NW7 29.99R  
PILOT MOUND N/A 41 30 65 N10 N/A  
THE PAS SUNNY 45 30 57 NW8 30.11S  
THOMPSON MOSUNNY 43 14 31 N14G21 30.02S  
WINNIPEG PTSUNNY 43 28 56 N13 30.09S  
LYNN LAKE SUNNY 45 25 45 NW16G24 30.07S  
CHURCHILL MOSUNNY 28 21 74 NW21G28 29.91R WCI 15  
GILLAM MOSUNNY 37 23 56 W13G20 29.93R  

 
***SASKATCHEWAN***  
 
CITY SKY/WX TMP DP RH WIND PRES REMARKS
 
ESTEVAN PTSUNNY 43 30 61 NW15G22 30.19S  
KINDERSLEY PTSUNNY 48 14 25 VRB13 30.26S  
LLOYDMINSTER MOSUNNY 50 19 29 N9 30.27S  
PRINCE ALBERT MOSUNNY 52 25 35 NW9 30.22S  
REGINA PTSUNNY 46 23 39 N16 30.20S  
YORKTON SUNNY 46 27 46 NW17 30.13F  
N. BATTLEFORD SUNNY 50 19 29 NW3 30.27F  
LA RONGE MOSUNNY 54 21 28 NW15G22 30.19S  
SASKATOON MOSUNNY 50 25 37 N15 30.22F  
SWIFT CURRENT SUNNY 45 25 45 NW18G24 30.22F  

 
NOTE: THESE ARE AUTOMATED STATIONS WITH LIMITED QUALITY CONTROL  
"FAIR" INDICATES FEW OR NO CLOUDS BELOW 12,000 FEET WITH NO  
SIGNIFICANT WEATHER AND/OR S TO VISIBILITY
.  
SKY/WX - SKY CONDITION AND SIGNIFICANT WEATHER.  
TMP - AIR TEMPERATURE. DP - DEWPOINT TEMPERATURE.  
RH - RELATIVE HUMIDITY. PRES - PRESSURE.  
HX - HEAT INDEX. WCI - WIND CHILL INDEX.  
$  
 
 
CLICK HERE TO GO TO PREVIOUS BULLETINS.

The Nexlab ND Page
The Nexlab MN Page Main Text Page